Date String (YYYY-MM-DD hh:mm:ss) UTC,Instrument flags,Ambient pressure (hPa),Sample flow (lpm),Bypass flow (lpm),Sample temperature (°C),Ambient temperature (°C),ASC tube jacket temperature (°C),LED temperature (°C),Box temperature (°C),Sample RH (%),Span deviation,Mass concentration (μg/m³),Mass concentration (μg/m³),Mass concentration (μg/m³)
DateTimeUTC,F1_M11,P_M11,Q1_M11,Q2_M11,T1_M11,T2_M11,T3_M11,T4_M11,T5_M11,U1_M11,ZSPAN_M11,X0_M11,X2_M11,X1_M11
2023-05-15 01:00:00,,0842.1,5.00,0.00,30.5,28.8,00.0,38.9,32.0,27.1,0000.0,0001.00,0000.78,0000.66
2023-05-15 01:01:00,,0842.1,5.00,0.00,30.5,28.8,00.0,38.9,32.0,27.1,0000.0,0001.00,0000.78,0000.65
2023-05-15 01:02:00,,0842.0,5.00,0.00,30.5,28.8,00.0,38.9,32.0,27.1,0000.0,0001.00,0000.77,0000.65
2023-05-15 01:03:00,,0842.0,4.99,0.00,30.5,28.8,00.0,38.9,32.0,27.1,0000.0,0001.01,0000.78,0000.65
2023-05-15 01:04:00,,0842.0,4.99,0.00,30.5,28.8,00.0,38.9,32.0,27.2,0000.0,0001.02,0000.78,0000.64
2023-05-15 01:05:00,,0842.0,5.00,0.00,30.5,28.8,00.0,38.9,32.0,27.2,0000.0,0001.11,0000.79,0000.63
2023-05-15 01:06:00,,0842.0,5.01,0.00,30.5,28.8,00.0,38.9,32.0,27.2,0000.0,0001.35,0000.81,0000.63
2023-05-15 01:07:00,,0842.0,4.98,0.00,30.4,28.8,00.0,38.9,32.0,27.3,0000.0,0001.40,0000.82,0000.63
2023-05-15 01:08:00,,0842.0,5.01,0.00,30.4,28.8,00.0,38.9,32.0,27.2,0000.0,0001.40,0000.81,0000.63
2023-05-15 01:09:00,,0842.1,5.01,0.00,30.5,28.8,00.0,38.9,32.0,27.3,0000.0,0001.42,0000.83,0000.64
2023-05-15 01:10:00,,0842.1,4.99,0.00,30.4,28.8,00.0,38.9,32.0,27.4,0000.0,0001.49,0000.85,0000.65
2023-05-15 01:11:00,,0842.1,5.01,0.00,30.4,28.8,00.0,38.9,32.0,27.4,0000.0,0001.58,0000.88,0000.65
2023-05-15 01:12:00,,0842.0,5.01,0.00,30.4,28.8,00.0,38.9,32.0,27.4,0000.0,0001.55,0000.88,0000.66
2023-05-15 01:13:00,,0842.1,4.99,0.00,30.4,28.8,00.0,38.9,32.0,27.4,0000.0,0001.61,0000.91,0000.69
2023-05-15 01:14:00,,0842.1,5.01,0.00,30.4,28.8,00.0,38.9,32.0,27.4,0000.0,0001.69,0000.96,0000.71
2023-05-15 01:15:00,,0842.1,5.00,0.00,30.4,28.8,00.0,38.9,31.9,27.3,0000.0,0001.72,0001.00,0000.75
2023-05-15 01:16:00,,0842.1,5.01,0.00,30.4,28.7,00.0,38.9,31.9,27.4,0000.0,0001.71,0001.02,0000.78
2023-05-15 01:17:00,,0842.1,4.99,0.00,30.4,28.7,00.0,38.9,31.9,27.5,0000.0,0001.54,0001.04,0000.82
2023-05-15 01:18:00,,0842.1,5.00,0.00,30.4,28.8,00.0,38.9,32.0,27.6,0000.0,0001.63,0001.07,0000.84
2023-05-15 01:19:00,,0842.2,5.02,0.00,30.4,28.8,00.0,38.9,31.9,27.6,0000.0,0001.65,0001.09,0000.87
2023-05-15 01:20:00,,0842.1,4.98,0.00,30.4,28.8,00.0,38.9,32.0,27.8,0000.0,0001.67,0001.11,0000.90
2023-05-15 01:21:00,,0842.1,5.00,0.00,30.4,28.8,00.0,38.9,31.9,27.7,0000.0,0001.66,0001.14,0000.93
2023-05-15 01:22:00,,0842.2,5.02,0.00,30.4,28.9,00.0,38.9,31.9,27.8,0000.0,0001.60,0001.14,0000.96
2023-05-15 01:23:00,,0842.2,5.00,0.00,30.4,28.9,00.0,38.9,32.0,27.8,0000.0,0001.65,0001.19,0000.99
2023-05-15 01:24:00,,0842.3,4.99,0.00,30.4,28.9,00.0,38.9,32.0,27.8,0000.0,0001.69,0001.22,0001.01
2023-05-15 01:25:00,,0842.3,5.01,0.00,30.4,28.9,00.0,38.9,32.0,27.8,0000.0,0001.68,0001.22,0001.04
2023-05-15 01:26:00,,0842.3,5.00,0.00,30.4,28.9,00.0,38.9,32.0,27.9,0000.0,0001.75,0001.24,0001.05
2023-05-15 01:27:00,,0842.3,4.99,0.00,30.4,28.9,00.0,38.9,32.0,27.8,0000.0,0001.79,0001.26,0001.07
2023-05-15 01:28:00,,0842.3,5.00,0.00,30.4,28.9,00.0,38.9,32.0,27.7,0000.0,0001.85,0001.31,0001.09
2023-05-15 01:29:00,,0842.3,5.01,0.00,30.4,28.8,00.0,38.9,32.0,27.7,0000.0,0001.75,0001.33,0001.12
2023-05-15 01:30:00,,0842.3,5.01,0.00,30.4,28.8,00.0,38.9,32.0,27.8,0000.0,0001.78,0001.36,0001.15
2023-05-15 01:31:00,,0842.3,4.99,0.00,30.4,28.8,00.0,38.9,32.0,27.8,0000.0,0001.84,0001.41,0001.18
2023-05-15 01:32:00,,0842.3,5.00,0.00,30.4,28.8,00.0,38.9,32.0,27.8,0000.0,0001.83,0001.42,0001.19
2023-05-15 01:33:00,,0842.3,5.00,0.00,30.4,28.8,00.0,38.9,32.0,27.9,0000.0,0001.85,0001.45,0001.23
2023-05-15 01:34:00,,0842.3,5.00,0.00,30.4,28.9,00.0,38.9,32.0,27.9,0000.0,0001.93,0001.48,0001.25
2023-05-15 01:35:00,,0842.3,4.99,0.00,30.5,28.9,00.0,38.9,31.9,27.8,0000.0,0002.32,0001.51,0001.26
2023-05-15 01:36:00,,0842.3,5.01,0.00,30.4,28.9,00.0,38.9,32.0,27.9,0000.0,0002.52,0001.52,0001.27
2023-05-15 01:37:00,,0842.3,4.99,0.00,30.5,28.9,00.0,38.9,31.9,27.8,0000.0,0002.47,0001.54,0001.30
2023-05-15 01:38:00,,0842.3,4.99,0.00,30.4,28.9,00.0,38.9,31.9,27.6,0000.0,0002.44,0001.54,0001.29
2023-05-15 01:39:00,,0842.3,4.99,0.00,30.4,28.9,00.0,38.9,31.9,27.4,0000.0,0002.41,0001.52,0001.29
2023-05-15 01:40:00,,0842.3,5.00,0.00,30.4,28.8,00.0,38.9,31.9,27.2,0000.0,0002.42,0001.50,0001.26
2023-05-15 01:41:00,,0842.3,5.01,0.00,30.4,28.8,00.0,38.9,31.9,27.1,0000.0,0002.42,0001.47,0001.24
2023-05-15 01:42:00,,0842.3,5.01,0.00,30.4,28.8,00.0,38.8,31.9,27.0,0000.0,0002.41,0001.44,0001.21
2023-05-15 01:43:00,,0842.4,4.98,0.00,30.4,28.8,00.0,38.8,31.9,26.9,0000.0,0002.51,0001.47,0001.20
2023-05-15 01:44:00,,0842.4,5.01,0.00,30.4,28.7,00.0,38.8,31.9,26.9,0000.0,0002.75,0001.53,0001.19
2023-05-15 01:45:00,,0842.4,5.00,0.00,30.4,28.7,00.0,38.8,31.8,26.8,0000.0,0002.92,0001.59,0001.18
2023-05-15 01:46:00,,0842.5,4.99,0.00,30.4,28.7,00.0,38.8,31.8,26.8,0000.0,0002.66,0001.61,0001.18
2023-05-15 01:47:00,,0842.5,5.01,0.00,30.3,28.6,00.0,38.8,31.8,26.9,0000.0,0002.53,0001.65,0001.18
2023-05-15 01:48:00,,0842.6,5.01,0.00,30.3,28.6,00.0,38.8,31.8,26.9,0000.0,0002.71,0001.71,0001.19
2023-05-15 01:49:00,,0842.6,4.99,0.00,30.3,28.6,00.0,38.8,31.8,27.0,0000.0,0002.90,0001.77,0001.20
2023-05-15 01:50:00,,0842.6,5.00,0.00,30.3,28.6,00.0,38.8,31.8,27.0,0000.0,0003.02,0001.82,0001.21
2023-05-15 01:51:00,,0842.6,5.01,0.00,30.3,28.6,00.0,38.8,31.8,27.1,0000.0,0003.03,0001.84,0001.22
2023-05-15 01:52:00,,0842.6,4.99,0.00,30.3,28.6,00.0,38.8,31.8,27.2,0000.0,0003.07,0001.87,0001.25
2023-05-15 01:53:00,,0842.6,4.99,0.00,30.3,28.6,00.0,38.8,31.7,27.2,0000.0,0003.17,0001.89,0001.25
2023-05-15 01:54:00,,0842.6,5.00,0.00,30.3,28.6,00.0,38.8,31.7,27.2,0000.0,0003.17,0001.88,0001.26
2023-05-15 01:55:00,,0842.6,5.01,0.00,30.3,28.6,00.0,38.8,31.7,27.3,0000.0,0002.97,0001.82,0001.25
2023-05-15 01:56:00,,0842.7,4.98,0.00,30.3,28.6,00.0,38.8,31.8,27.4,0000.0,0002.81,0001.76,0001.25
2023-05-15 01:57:00,,0842.6,5.01,0.00,30.3,28.6,00.0,38.7,31.7,27.4,0000.0,0002.69,0001.70,0001.24
2023-05-15 01:58:00,,0842.6,5.01,0.00,30.2,28.5,00.0,38.7,31.8,27.5,0000.0,0002.59,0001.65,0001.22
2023-05-15 01:59:00,,0842.6,4.98,0.00,30.2,28.6,00.0,38.7,31.7,27.6,0000.0,0002.42,0001.56,0001.19
